Regional Weather Roundup
Issued by NWS

Home | Current Version | Previous Version | Graphics & Text | Print | Product List | Glossary On
Versions: 1 2 3 4 5 6 7 8 9 10 11 12 13 14 15 16 17 18 19 20 21 22 23 24 25 26 27 28 29 30 31 32 33 34 35 36 37 38 39 40 41 42 43 44 45 46 47 48 49 50
000
ASUS45 KBOI 311810
RWRID

IDAHO REGIONAL WEATHER ROUNDUP
NATIONAL WEATHER SERVICE BOISE ID
1200 PM MDT MON AUG 31 2015

NOTE: "FAIR" INDICATES FEW OR NO CLOUDS BELOW 12000 FEET
WITH NO SIGNIFICANT WEATHER AND/OR OBSTRUCTIONS TO VISIBILITY

IDZ012-014-311900-
SOUTHWEST IDAHO


CITY           SKY/WX    TMP DP  RH WIND       PRES   REMARKS
BOISE          SUNNY     69  43  38 W6        30.08F
CALDWELL       SUNNY     70  41  35 NW7       30.10F
MOUNTAIN HOME  SUNNY     72  39  30 VRB5      30.08F
$$

IDZ016-017-311900-
SOUTHCENTRAL IDAHO


CITY           SKY/WX    TMP DP  RH WIND       PRES   REMARKS
BURLEY         SUNNY     69  43  38 VRB5      30.12S
JEROME         SUNNY     67  43  41 VRB5      30.12F
TWIN FALLS     SUNNY     70  39  32 N7        30.12F
$$

IDZ019>023-311900-
SOUTHEAST IDAHO


CITY           SKY/WX    TMP DP  RH WIND       PRES   REMARKS
IDAHO FALLS    SUNNY     70  40  33 SW17G23   30.14S
POCATELLO      SUNNY     71  39  31 W8        30.14F
REXBURG        SUNNY     68  38  33 SW13      30.14S
$$

IDZ006-010-011-018-031-032-311900-
CENTRAL IDAHO MOUNTAINS


CITY           SKY/WX    TMP DP  RH WIND       PRES   REMARKS
MCCALL         SUNNY     60  38  43 S8        30.13F
HAILEY         SUNNY     66  39  37 SE10      30.16F
STANLEY          N/A     62  32  32 VRB3      30.19F
SALMON         SUNNY     63  39  42 N3        30.06F
CHALLIS        SUNNY     67  39  35 CALM      30.09F
$$

IDZ002-004-006-007-026-311900-
NORTHERN IDAHO


CITY           SKY/WX    TMP DP  RH WIND       PRES   REMARKS
LEWISTON       MOSUNNY   69  43  38 N8        30.04F
LOWELL           N/A     63  52  67 CALM      30.08F
COEUR D`ALENE  CLOUDY    63  46  55 S15G22    30.05F
MULLAN PASS    PTSUNNY   45  38  76 VRB6      30.11S
$$



USA.gov is the U.S. government's official web portal to all federal, state and local government web resources and services.